Regional Weather Roundup
Issued by NWS

Home | Current Version | Previous Version | Text Only | Print | Product List | Glossary Off
Versions: 1 2 3 4 5 6 7 8 9 10 11 12 13 14 15 16 17 18 19 20 21 22 23 24 25 26 27 28 29 30 31 32 33 34 35 36 37 38 39 40 41 42 43 44 45 46 47 48 49 50

864
ASUS43 KLMK 020910
RWRKY
KENTUCKY REGIONAL WEATHER ROUNDUP
NATIONAL WEATHER SERVICE LOUISVILLE KY
500 AM EDT MON MAY 02 2016

NOTE "FAIR" INDICATES FEW OR NO CLOUDS BELOW 12,000 FEET
WITH NO SIGNIFICANT WEATHER AND/OR OBSTRUCTIONS TO VISIBILITY.

KYZ001>023-026-027-061>063-070>075-021000-
WESTERN AND SOUTH CENTRAL KENTUCKY

CITY           SKY/WX    TMP DP  RH WIND       PRES   REMARKS
PADUCAH        PTCLDY    57  51  80 N8        30.01R
HENDERSON      PTCLDY    57  48  72 W6        29.99R
OWENSBORO      CLEAR     57  53  86 W5        30.00R
HOPKINSVILLE   CLOUDY    60  54  78 N5        30.00R
BOWLING GREEN  CLOUDY    64  54  69 NW7       29.99R
GLASGOW        CLOUDY    65  61  86 NW5       29.97R
$$

KYZ024-025-028>034-038-045-046-053-021000-
NORTH CENTRAL KENTUCKY

CITY           SKY/WX    TMP DP  RH WIND       PRES   REMARKS
LOUISVILLE/SDF CLOUDY    62  56  80 W8        29.95R
LOUISVILLE/LOU MOCLDY    61  56  83 W5        29.95R
FORT KNOX      CLOUDY    60  58  92 SW6       29.96R
$$

KYZ035>037-039>044-047>052-055>060-089>105-021000-
NORTHEAST KENTUCKY

CITY           SKY/WX    TMP DP  RH WIND       PRES   REMARKS
LEXINGTON      PTCLDY    63  59  87 W6        29.95R
COVINGTON      CLEAR     59  58  96 W8        29.91R
FRANKFORT      CLOUDY    63  57  81 W5        29.94R
$$

KYZ054-064>069-076>088-106>120-021000-
SOUTHEAST KENTUCKY

CITY           SKY/WX    TMP DP  RH WIND       PRES   REMARKS
JACKSON        MOCLDY    64  60  87 VRB5      29.95S
LONDON         MOCLDY    65  60  84 S6        29.97S
SOMERSET       CLOUDY    64  61  88 SW6       29.97R
MIDDLESBORO    CLOUDY    60  60 100 CALM      29.99R
MONTICELLO     PTSUNNY   66  62  87 W13       29.98R
$$





USA.gov is the U.S. government's official web portal to all federal, state and local government web resources and services.